Вернуться в каталог

SCOUT B DEB

LostUNKNOWN
NORAD 29167·DEBRIS·🇺🇸 United States

Запущен Aug 10, 1965 с Wallops Flight Facility

Loading…

Ближайшие Пролёты (ближайшие 24 часа)

TLE

УстаревшееSource: Space-Track

Эпоха: Aug 20, 2021, 01:42 UTC

1 29167U 65063R   21232.07119748 -.00000285  00000-0 -17384-2 0  9994
2 29167  69.2379 161.0900 0721641 343.3848  28.2122 11.88382513601176

Отслеживайте SCOUT B DEB в реальном времени с AllMySat

Download on the App Store